OK,102,42,1033,102,2014-10-01T01:40:00,0,28072803,195896
OK,102,42,1033,102,2014-10-01T01:45:00,0,28073250,195896
OK,102,42,1033,102,2014-10-01T01:50:00,0,28073698,195896
OK,102,42,1033,102,2014-10-01T01:55:00,0,28074016,195896
OK,102,42,1033,102,2014-10-01T02:05:00,0,28074905,195896
OK,102,42,1033,102,2014-10-01T02:10:00,0,28075354,195896
OK,102,42,1033,102,2014-10-01T02:15:00,0,28075803,195896
OK,102,42,1033,102,2014-10-01T02:20:00,0,28076186,195896
OK,102,42,1033,102,2014-10-01T02:25:00,0,28076635,195896
OK,102,42,1033,102,2014-10-01T02:30:00,0,28077084,195896
OK,102,42,1033,102,2014-10-01T02:35:00,0,28077533,195896
OK,102,42,1033,102,2014-10-01T02:40:00,0,28077936,195896
OK,102,42,1033,102,2014-10-01T02:45:00,0,28078385,195896
OK,102,42,1033,102,2014-10-01T02:50:00,0,28078830,195896
OK,102,42,1033,102,2014-10-01T02:55:00,0,28079278,195896
OK,102,42,1033,102,2014-10-01T03:00:00,0,28079721,195896
OK,102,42,1033,102,2014-10-01T03:05:00,0,28080170,195896
OK,102,42,1033,102,2014-10-01T03:10:00,0,28080504,195896
OK,102,42,1033,102,2014-10-01T03:15:00,0,28080953,195896
OK,102,42,1033,102,2014-10-01T03:20:00,0,28081402,195896
OK,102,42,1033,102,2014-10-01T03:25:00,0,28081849,195896
OK,102,42,1033,102,2014-10-01T03:30:00,0,28082298,195896
OK,102,42,1033,102,2014-10-01T03:35:00,0,28082731,195896
OK,102,42,1033,102,2014-10-01T03:40:00,0,28083163,195896
OK,102,42,1033,102,2014-10-01T03:45:00,0,28083612,195896
OK,102,42,1033,102,2014-10-01T03:50:00,0,28084061,195896
OK,102,42,1033,102,2014-10-01T03:55:00,0,28084502,195896
OK,102,42,1033,102,2014-10-01T04:00:00,0,28084927,195896
OK,102,42,1033,102,2014-10-01T04:05:00,0,28085376,195896
OK,102,42,1033,102,2014-10-01T04:10:00,0,28085821,195896
OK,102,42,1033,102,2014-10-01T04:15:00,0,28086270,195896
OK,102,42,1033,102,2014-10-01T04:20:00,0,28086712,195896
OK,102,42,1033,102,2014-10-01T04:25:00,0,28087161,195896
OK,102,42,1033,102,2014-10-01T04:30:00,0,28087606,195896
OK,102,42,1033,102,2014-10-01T04:35:00,0,28088055,195896
OK,102,42,1033,102,2014-10-01T04:40:00,0,28088479,195896
OK,102,42,1033,102,2014-10-01T04:45:00,0,28088928,195896
OK,102,42,1033,102,2014-10-01T04:50:00,0,28089358,195896
OK,102,42,1033,102,2014-10-01T04:55:00,0,28089807,195896
OK,102,42,1033,102,2014-10-01T05:00:00,0,28090256,195896
OK,102,42,1033,102,2014-10-01T05:05:00,0,28090600,195896
OK,102,42,1033,102,2014-10-01T05:10:00,0,28091049,195896
OK,102,42,1033,102,2014-10-01T05:15:00,0,28091498,195896
OK,102,42,1033,102,2014-10-01T05:20:00,0,28091915,195896
OK,102,42,1033,102,2014-10-01T05:25:00,0,28092364,195896
OK,102,42,1033,102,2014-10-01T05:30:00,0,28092808,195896
OK,102,42,1033,102,2014-10-01T05:35:00,0,28093249,195896
OK,102,42,1033,102,2014-10-01T05:40:00,0,28093680,195896
OK,102,42,1033,102,2014-10-01T05:45:00,0,28094129,195896
OK,102,42,1033,102,2014-10-01T05:50:00,0,28094540,195896
OK,94,46,1033,94,2014-10-01T05:55:00,3,28094985,195896
OK,94,46,1033,94,2014-10-01T06:00:00,3,28095432,195896
OK,134,32,1033,134,2014-10-01T06:05:00,1,28095881,195896
OK,134,32,1033,134,2014-10-01T06:10:00,0,28096294,195896
OK,82,52,1033,82,2014-10-01T06:15:00,1,28096743,195896
OK,82,52,1033,82,2014-10-01T06:20:00,1,28097177,195896
OK,82,52,1033,82,2014-10-01T06:25:00,0,28097626,195896
OK,82,52,1033,82,2014-10-01T06:30:00,0,28098075,195896
OK,82,52,1033,82,2014-10-01T06:35:00,0,28098512,195896
OK,86,50,1033,86,2014-10-01T06:40:00,1,28098956,195896
OK,86,50,1033,86,2014-10-01T06:45:00,1,28099404,195896
OK,86,50,1033,86,2014-10-01T06:50:00,0,28099747,195896
OK,86,50,1033,86,2014-10-01T06:55:00,0,28100196,195896
OK,86,50,1033,86,2014-10-01T07:00:00,0,28100503,195896
OK,86,50,1033,86,2014-10-01T07:10:00,0,28101323,195896
OK,86,50,1033,86,2014-10-01T07:15:00,0,28101772,195896
OK,86,50,1033,86,2014-10-01T07:20:00,0,28102208,195896
OK,86,50,1033,86,2014-10-01T07:25:00,0,28102657,195896
OK,103,42,1033,103,2014-10-01T07:30:00,1,28103085,195896
OK,103,42,1033,103,2014-10-01T07:35:00,1,28103531,195896
OK,103,42,1033,103,2014-10-01T07:40:00,0,28103976,195896
OK,97,44,1033,97,2014-10-01T07:45:00,1,28104421,195896
OK,97,44,1033,97,2014-10-01T07:50:00,1,28104862,195896
OK,97,44,1033,97,2014-10-01T07:55:00,0,28105307,195896
OK,97,44,1033,97,2014-10-01T08:00:00,0,28105747,195896
OK,97,44,1033,97,2014-10-01T08:05:00,0,28106196,195896
OK,97,44,1033,97,2014-10-01T08:10:00,0,28106633,195896
OK,97,44,1033,97,2014-10-01T08:15:00,0,28107039,195896
OK,97,44,1033,97,2014-10-01T08:20:00,0,28107471,195896
OK,108,40,1033,108,2014-10-01T08:25:00,1,28107920,195896
OK,69,62,1033,69,2014-10-01T08:30:00,1,28108359,195896
OK,69,62,1033,69,2014-10-01T08:35:00,1,28108808,195896
OK,69,62,1033,69,2014-10-01T08:40:00,0,28109236,195896
OK,69,62,1033,69,2014-10-01T08:45:00,0,28109685,195896
OK,91,47,1033,91,2014-10-01T08:50:00,1,28110028,195896
OK,91,47,1033,91,2014-10-01T09:00:00,0,28110900,195896
OK,91,47,1033,91,2014-10-01T09:05:00,0,28111349,195896
OK,91,47,1033,91,2014-10-01T09:10:00,0,28111778,195896
OK,91,47,1033,91,2014-10-01T09:15:00,0,28112227,195896
OK,91,47,1033,91,2014-10-01T09:20:00,0,28112568,195896
OK,91,47,1033,91,2014-10-01T09:30:00,0,28113441,195896
OK,81,53,1033,81,2014-10-01T09:35:00,1,28113890,195896
OK,81,53,1033,81,2014-10-01T09:40:00,0,28114322,195896
OK,81,53,1033,81,2014-10-01T09:45:00,0,28114771,195896
OK,81,53,1033,81,2014-10-01T09:50:00,0,28115125,195896
OK,81,53,1033,81,2014-10-01T10:00:00,0,28115986,195896
OK,81,53,1033,81,2014-10-01T10:05:00,0,28116435,195896
OK,81,53,1033,81,2014-10-01T10:10:00,0,28116843,195896
OK,81,53,1033,81,2014-10-01T10:15:00,0,28117292,195896
OK,81,53,1033,81,2014-10-01T10:20:00,0,28117717,195896
OK,81,53,1033,81,2014-10-01T10:25:00,0,28118166,195896
OK,81,53,1033,81,2014-10-01T10:30:00,0,28118611,195896
OK,81,53,1033,81,2014-10-01T10:35:00,0,28119058,195896
OK,81,53,1033,81,2014-10-01T10:40:00,0,28119502,195896
OK,81,53,1033,81,2014-10-01T10:45:00,0,28119950,195896
OK,78,55,1033,78,2014-10-01T10:50:00,1,28120398,195896
OK,84,51,1033,84,2014-10-01T10:55:00,3,28120847,195896
OK,84,51,1033,84,2014-10-01T11:00:00,2,28121230,195896
OK,86,50,1033,86,2014-10-01T11:05:00,1,28121679,195896
OK,85,51,1033,85,2014-10-01T11:10:00,3,28122117,195896
OK,82,52,1033,82,2014-10-01T11:15:00,2,28122566,195896
OK,79,54,1033,79,2014-10-01T11:20:00,0,28123007,195896
OK,85,51,1033,85,2014-10-01T11:25:00,1,28123456,195896
OK,85,51,1033,85,2014-10-01T11:30:00,1,28123888,195896
OK,91,47,1033,91,2014-10-01T11:35:00,1,28124337,195896
OK,79,54,1033,79,2014-10-01T11:40:00,3,28124739,195896
OK,76,57,1033,76,2014-10-01T11:45:00,2,28125188,195896
OK,99,43,1033,99,2014-10-01T11:50:00,1,28125617,195896
OK,154,28,1033,154,2014-10-01T11:55:00,2,28126066,195896
OK,210,20,1033,210,2014-10-01T12:00:00,1,28126418,195896
OK,83,52,1033,83,2014-10-01T12:10:00,1,28127316,195896
OK,126,34,1033,126,2014-10-01T12:15:00,1,28127765,195896
OK,126,34,1033,126,2014-10-01T12:20:00,1,28128193,195896
OK,126,34,1033,126,2014-10-01T12:25:00,0,28128642,195896
OK,126,34,1033,126,2014-10-01T12:30:00,0,28129077,195896
OK,126,34,1033,126,2014-10-01T12:35:00,0,28129526,195896
OK,126,34,1033,126,2014-10-01T12:40:00,0,28129960,195896
OK,126,34,1033,126,2014-10-01T12:45:00,0,28130409,195896
OK,126,34,1033,126,2014-10-01T12:50:00,0,28130837,195896
OK,82,52,1033,82,2014-10-01T12:55:00,1,28131286,195896
OK,82,52,1033,82,2014-10-01T13:00:00,2,28131723,195896
OK,83,52,1033,83,2014-10-01T13:05:00,1,28132172,195896
OK,112,38,1033,112,2014-10-01T13:10:00,1,28132610,195896
OK,112,38,1033,112,2014-10-01T13:15:00,1,28133057,195896
OK,97,44,1033,97,2014-10-01T13:20:00,1,28133495,195896
OK,97,44,1033,97,2014-10-01T13:25:00,1,28133944,195896
OK,97,44,1033,97,2014-10-01T13:30:00,0,28134383,195896
OK,97,44,1033,97,2014-10-01T13:35:00,0,28134832,195896
OK,97,44,1033,97,2014-10-01T13:40:00,0,28135251,195896
OK,131,33,1033,131,2014-10-01T13:45:00,1,28135700,195896
OK,131,33,1033,131,2014-10-01T13:50:00,1,28136137,195896
OK,111,39,1033,111,2014-10-01T13:55:00,1,28136586,195896
OK,111,39,1033,111,2014-10-01T14:00:00,1,28137026,195896
OK,111,39,1033,111,2014-10-01T14:05:00,0,28137475,195896
OK,111,39,1033,111,2014-10-01T14:10:00,0,28137909,195896
OK,95,45,1033,95,2014-10-01T14:15:00,1,28138358,195896
OK,105,41,1033,105,2014-10-01T14:20:00,2,28138786,195896
OK,116,37,1033,116,2014-10-01T14:25:00,1,28139235,195896
OK,129,33,1033,129,2014-10-01T14:30:00,1,28139646,195896
OK,129,33,1033,129,2014-10-01T14:35:00,1,28140095,195896
OK,104,41,1033,104,2014-10-01T14:40:00,1,28140537,195896
OK,106,40,1033,106,2014-10-01T14:45:00,2,28140986,195896
OK,109,39,1033,109,2014-10-01T14:50:00,1,28141412,195896
OK,109,39,1033,109,2014-10-01T14:55:00,0,28141861,195896
OK,109,39,1033,109,2014-10-01T15:00:00,0,28142289,195896
OK,74,58,1033,74,2014-10-01T15:05:00,1,28142738,195896
OK,74,58,1033,74,2014-10-01T15:10:00,0,28143165,195896
OK,84,51,1033,84,2014-10-01T15:15:00,1,28143614,195896
OK,112,38,1033,112,2014-10-01T15:20:00,1,28144062,195896
OK,112,38,1033,112,2014-10-01T15:25:00,1,28144511,195896
OK,112,38,1033,112,2014-10-01T15:30:00,0,28144932,195896
OK,89,48,1033,89,2014-10-01T15:35:00,1,28145346,195896
OK,89,48,1033,89,2014-10-01T15:40:00,1,28145795,195896
OK,89,48,1033,89,2014-10-01T15:45:00,0,28146244,195896
OK,89,48,1033,89,2014-10-01T15:50:00,0,28146693,195896
OK,89,48,1033,89,2014-10-01T15:55:00,0,28147101,195896
OK,89,48,1033,89,2014-10-01T16:00:00,0,28147545,195896
OK,89,48,1033,89,2014-10-01T16:05:00,1,28147994,195896
OK,89,48,1033,89,2014-10-01T16:10:00,1,28148395,195896
OK,109,39,1033,109,2014-10-01T16:20:00,1,28149283,195896
OK,109,39,1033,109,2014-10-01T16:25:00,1,28149732,195896
OK,109,39,1033,109,2014-10-01T16:30:00,0,28150158,195896
OK,109,39,1033,109,2014-10-01T16:35:00,0,28150607,195896
OK,109,39,1033,109,2014-10-01T16:40:00,0,28151025,195896
OK,109,39,1033,109,2014-10-01T16:45:00,0,28151474,195896
OK,109,39,1033,109,2014-10-01T16:50:00,0,28151923,195896
OK,69,62,1033,69,2014-10-01T17:00:00,0,28152372,195896
OK,69,62,1033,69,2014-10-01T17:05:00,0,28152818,195896
OK,69,62,1033,69,2014-10-01T17:10:00,0,28153265,195896
OK,69,62,1033,69,2014-10-01T17:15:00,0,28153714,195896
OK,69,62,1033,69,2014-10-01T17:20:00,0,28154124,195896
OK,69,62,1033,69,2014-10-01T17:25:00,0,28154573,195896
OK,69,62,1033,69,2014-10-01T17:30:00,0,28155015,195896
OK,69,62,1033,69,2014-10-01T17:35:00,0,28155463,195896
OK,69,62,1033,69,2014-10-01T17:40:00,0,28155881,195896
OK,69,62,1033,69,2014-10-01T17:45:00,0,28156330,195896
OK,69,62,1033,69,2014-10-01T17:50:00,0,28156778,195896
OK,69,62,1033,69,2014-10-01T17:55:00,0,28157217,195896
OK,69,62,1033,69,2014-10-01T18:00:00,0,28157647,195896
OK,69,62,1033,69,2014-10-01T18:05:00,0,28158095,195896
OK,69,62,1033,69,2014-10-01T18:10:00,0,28158539,195896
OK,69,62,1033,69,2014-10-01T18:15:00,0,28158985,195896
OK,69,62,1033,69,2014-10-01T18:20:00,0,28159431,195896
OK,69,62,1033,69,2014-10-01T18:25:00,0,28159766,195896
OK,69,62,1033,69,2014-10-01T18:30:00,0,28160215,195896
OK,69,62,1033,69,2014-10-01T18:35:00,0,28160664,195896
OK,69,62,1033,69,2014-10-01T18:40:00,0,28161102,195896
OK,69,62,1033,69,2014-10-01T18:45:00,0,28161551,195896
OK,69,62,1033,69,2014-10-01T18:50:00,0,28161968,195896
OK,69,62,1033,69,2014-10-01T18:55:00,0,28162417,195896
OK,69,62,1033,69,2014-10-01T19:00:00,0,28162811,195896
OK,69,62,1033,69,2014-10-01T19:05:00,0,28163250,195896
OK,69,62,1033,69,2014-10-01T19:10:00,0,28163698,195896
OK,69,62,1033,69,2014-10-01T19:15:00,0,28164147,195896
OK,69,62,1033,69,2014-10-01T19:20:00,0,28164578,195896
OK,69,62,1033,69,2014-10-01T19:25:00,0,28165027,195896
OK,69,62,1033,69,2014-10-01T19:30:00,0,28165452,195896
OK,69,62,1033,69,2014-10-01T19:35:00,0,28165900,195896
OK,69,62,1033,69,2014-10-01T19:40:00,0,28166341,195896
OK,69,62,1033,69,2014-10-01T19:45:00,0,28166703,195896
OK,69,62,1033,69,2014-10-01T19:50:00,0,28167152,195896
OK,69,62,1033,69,2014-10-01T19:55:00,0,28167581,195896
OK,69,62,1033,69,2014-10-01T20:00:00,0,28168014,195896
OK,69,62,1033,69,2014-10-01T20:05:00,0,28168463,195896
OK,69,62,1033,69,2014-10-01T20:10:00,0,28168908,195896
OK,69,62,1033,69,2014-10-01T20:15:00,0,28169357,195896
OK,69,62,1033,69,2014-10-01T20:20:00,0,28169805,195896
OK,69,62,1033,69,2014-10-01T20:25:00,0,28170231,195896
OK,69,62,1033,69,2014-10-01T20:30:00,0,28170676,195896
OK,69,62,1033,69,2014-10-01T20:35:00,0,28171124,195896
OK,69,62,1033,69,2014-10-01T20:40:00,0,28171561,195896
OK,69,62,1033,69,2014-10-01T20:45:00,0,28172007,195896
OK,69,62,1033,69,2014-10-01T20:50:00,0,28172455,195896
OK,69,62,1033,69,2014-10-01T20:55:00,0,28172901,195896
OK,69,62,1033,69,2014-10-01T21:00:00,0,28173347,195896
OK,69,62,1033,69,2014-10-01T21:05:00,0,28173796,195896
OK,69,62,1033,69,2014-10-01T21:10:00,0,28174237,195896
OK,76,57,1033,76,2014-10-01T21:15:00,1,28174686,195896
OK,76,57,1033,76,2014-10-01T21:20:00,1,28175112,195896
OK,76,57,1033,76,2014-10-01T21:25:00,0,28175508,195896
OK,76,57,1033,76,2014-10-01T21:30:00,0,28175957,195896
OK,76,57,1033,76,2014-10-01T21:35:00,0,28176406,195896
OK,76,57,1033,76,2014-10-01T21:40:00,0,28176855,195896
OK,76,57,1033,76,2014-10-01T21:45:00,0,28177211,195896
OK,76,57,1033,76,2014-10-01T21:50:00,0,28177651,195896
OK,76,57,1033,76,2014-10-01T21:55:00,0,28178097,195896
OK,76,57,1033,76,2014-10-01T22:00:00,0,28178546,195896
OK,76,57,1033,76,2014-10-01T22:05:00,0,28178993,195896
OK,76,57,1033,76,2014-10-01T22:10:00,0,28179427,195896
OK,76,57,1033,76,2014-10-01T22:15:00,0,28179870,195896
OK,76,57,1033,76,2014-10-01T22:20:00,0,28180317,195896
OK,76,57,1033,76,2014-10-01T22:25:00,0,28180715,195896
OK,76,57,1033,76,2014-10-01T22:30:00,0,28181164,195896
OK,76,57,1033,76,2014-10-01T22:35:00,0,28181588,195896
OK,76,57,1033,76,2014-10-01T22:40:00,0,28182036,195896
OK,76,57,1033,76,2014-10-01T22:45:00,0,28182483,195896
OK,76,57,1033,76,2014-10-01T22:50:00,0,28182932,195896
OK,76,57,1033,76,2014-10-01T22:55:00,0,28183349,195896
OK,76,57,1033,76,2014-10-01T23:00:00,0,28183782,195896
OK,76,57,1033,76,2014-10-01T23:05:00,0,28184227,195896
OK,76,57,1033,76,2014-10-01T23:10:00,0,28184676,195896
OK,76,57,1033,76,2014-10-01T23:15:00,0,28185111,195896
OK,76,57,1033,76,2014-10-01T23:20:00,0,28185559,195896
OK,76,57,1033,76,2014-10-01T23:25:00,0,28185990,195896
OK,76,57,1033,76,2014-10-01T23:30:00,0,28186382,195896
OK,76,57,1033,76,2014-10-01T23:40:00,0,28187229,195896
OK,76,57,1033,76,2014-10-01T23:55:00,0,28188561,195896
OK,76,57,1033,76,2014-10-02T00:05:00,0,28189446,195896
OK,76,57,1033,76,2014-10-02T00:10:00,0,28189868,195896
OK,76,57,1033,76,2014-10-02T00:15:00,0,28190317,195896
OK,76,57,1033,76,2014-10-02T00:20:00,0,28190670,195896
OK,76,57,1033,76,2014-10-02T00:30:00,0,28191568,195896
OK,76,57,1033,76,2014-10-02T00:35:00,0,28191874,195896
OK,76,57,1033,76,2014-10-02T00:45:00,0,28192756,195896
OK,76,57,1033,76,2014-10-02T00:50:00,0,28193200,195896
OK,76,57,1033,76,2014-10-02T00:55:00,0,28193567,195896
OK,76,57,1033,76,2014-10-02T01:05:00,0,28194465,195896
OK,76,57,1033,76,2014-10-02T01:10:00,0,28194914,195896
OK,76,57,1033,76,2014-10-02T01:15:00,0,28195150,195896
OK,76,57,1033,76,2014-10-02T01:25:00,0,28196048,195896
OK,76,57,1033,76,2014-10-02T01:30:00,0,28196332,195896
OK,76,57,1033,76,2014-10-02T01:35:00,0,28196781,195896
OK,76,57,1033,76,2014-10-02T01:40:00,0,28197204,195896
OK,76,57,1033,76,2014-10-02T01:45:00,0,28197653,195896
OK,76,57,1033,76,2014-10-02T01:50:00,0,28198101,195896
OK,76,57,1033,76,2014-10-02T01:55:00,0,28198549,195896
OK,76,57,1033,76,2014-10-02T02:00:00,0,28198998,195896
OK,76,57,1033,76,2014-10-02T02:05:00,0,28199370,195896
OK,76,57,1033,76,2014-10-02T02:10:00,0,28199812,195896
OK,76,57,1033,76,2014-10-02T02:15:00,0,28200254,195896
OK,76,57,1033,76,2014-10-02T02:20:00,0,28200697,195896
OK,76,57,1033,76,2014-10-02T02:25:00,0,28201146,195896
OK,76,57,1033,76,2014-10-02T02:30:00,0,28201577,195896
OK,76,57,1033,76,2014-10-02T02:45:00,0,28202475,195896
OK,76,57,1033,76,2014-10-02T02:50:00,0,28202917,195896
OK,76,57,1033,76,2014-10-02T02:55:00,0,28203365,195896
OK,76,57,1033,76,2014-10-02T03:00:00,0,28203800,195896
OK,76,57,1033,76,2014-10-02T03:10:00,0,28204249,195896
OK,76,57,1033,76,2014-10-02T03:25:00,0,28204698,195896
OK,76,57,1033,76,2014-10-02T03:30:00,0,28205147,195896
OK,76,57,1033,76,2014-10-02T03:35:00,0,28205575,195896
OK,76,57,1033,76,2014-10-02T03:40:00,0,28206022,195896
OK,76,57,1033,76,2014-10-02T03:45:00,0,28206405,195896
OK,76,57,1033,76,2014-10-02T03:55:00,0,28207303,195896
OK,76,57,1033,76,2014-10-02T04:00:00,0,28207722,195896
OK,76,57,1033,76,2014-10-02T04:05:00,0,28208171,195896
OK,76,57,1033,76,2014-10-02T04:10:00,0,28208598,195896
OK,76,57,1033,76,2014-10-02T04:15:00,0,28209047,195896
OK,76,57,1033,76,2014-10-02T04:20:00,0,28209485,195896
OK,76,57,1033,76,2014-10-02T04:25:00,0,28209934,195896
OK,76,57,1033,76,2014-10-02T04:30:00,0,28210357,195896
OK,76,57,1033,76,2014-10-02T04:35:00,0,28210806,195896
OK,76,57,1033,76,2014-10-02T04:40:00,0,28211231,195896
OK,76,57,1033,76,2014-10-02T04:45:00,0,28211675,195896
OK,76,57,1033,76,2014-10-02T04:50:00,0,28212053,195896
OK,76,57,1033,76,2014-10-02T05:00:00,0,28212931,195896
OK,76,57,1033,76,2014-10-02T05:05:00,0,28213380,195896
OK,76,57,1033,76,2014-10-02T05:10:00,0,28213818,195896
OK,117,37,1033,117,2014-10-02T05:15:00,2,28214267,195896
OK,102,42,1033,102,2014-10-02T05:20:00,1,28214680,195896
OK,98,44,1033,98,2014-10-02T05:25:00,1,28215129,195896
OK,98,44,1033,98,2014-10-02T05:30:00,1,28215545,195896
OK,98,44,1033,98,2014-10-02T05:35:00,0,28215994,195896
OK,98,44,1033,98,2014-10-02T05:40:00,0,28216333,195896
OK,98,44,1033,98,2014-10-02T05:45:00,0,28216773,195896
OK,98,44,1033,98,2014-10-02T05:50:00,0,28217220,195896
OK,130,33,1033,130,2014-10-02T05:55:00,0,28217669,195896
OK,130,33,1033,130,2014-10-02T06:00:00,0,28218108,195896
OK,130,33,1033,130,2014-10-02T06:05:00,0,28218557,195896
OK,130,33,1033,130,2014-10-02T06:10:00,0,28218977,195896
OK,130,33,1033,130,2014-10-02T06:15:00,0,28219426,195896
OK,130,33,1033,130,2014-10-02T06:20:00,0,28219799,195896
OK,130,33,1033,130,2014-10-02T06:30:00,0,28220682,195896
OK,130,33,1033,130,2014-10-02T06:35:00,0,28221131,195896
OK,108,40,1033,108,2014-10-02T06:40:00,1,28221512,195896
OK,108,40,1033,108,2014-10-02T06:45:00,1,28221798,195896
OK,108,40,1033,108,2014-10-02T07:00:00,0,28222392,195896
OK,108,40,1033,108,2014-10-02T07:10:00,0,28223272,195896
OK,108,40,1033,108,2014-10-02T07:15:00,0,28223707,195896
OK,108,40,1033,108,2014-10-02T07:20:00,0,28224155,195896
OK,108,40,1033,108,2014-10-02T07:25:00,0,28224510,195896
OK,108,40,1033,108,2014-10-02T07:35:00,0,28225408,195896
OK,108,40,1033,108,2014-10-02T07:40:00,0,28225730,195896
OK,75,57,1033,75,2014-10-02T07:50:00,1,28226620,195896
OK,75,57,1033,75,2014-10-02T07:55:00,1,28227069,195896
OK,75,57,1033,75,2014-10-02T08:00:00,0,28227484,195896
OK,75,57,1033,75,2014-10-02T08:05:00,0,28227933,195896
OK,75,57,1033,75,2014-10-02T08:10:00,0,28228292,195896
OK,75,57,1033,75,2014-10-02T08:20:00,0,28229151,195896
OK,118,36,1033,118,2014-10-02T08:25:00,2,28229600,195896
OK,118,36,1033,118,2014-10-02T08:30:00,0,28229950,195896
OK,118,36,1033,118,2014-10-02T08:40:00,0,28230765,195896
OK,118,36,1033,118,2014-10-02T08:45:00,0,28231213,195896
OK,118,36,1033,118,2014-10-02T08:50:00,0,28231637,195896
OK,118,36,1033,118,2014-10-02T08:55:00,0,28232086,195896
OK,112,38,1033,112,2014-10-02T09:00:00,1,28232428,195896
OK,112,38,1033,112,2014-10-02T09:10:00,0,28232877,195896
OK,112,38,1033,112,2014-10-02T09:15:00,0,28233326,195896
OK,112,38,1033,112,2014-10-02T09:20:00,0,28233750,195896
OK,112,38,1033,112,2014-10-02T09:25:00,0,28234199,195896
OK,112,38,1033,112,2014-10-02T09:30:00,0,28234532,195896
OK,205,21,1033,205,2014-10-02T09:40:00,1,28235408,195896
OK,205,21,1033,205,2014-10-02T09:45:00,0,28235857,195896
OK,205,21,1033,205,2014-10-02T09:50:00,0,28236300,195896
OK,108,40,1033,108,2014-10-02T09:55:00,0,28236747,195896
OK,108,40,1033,108,2014-10-02T10:00:00,0,28237150,195896
OK,108,40,1033,108,2014-10-02T10:05:00,0,28237597,195896
OK,108,40,1033,108,2014-10-02T10:10:00,0,28238046,195896
OK,108,40,1033,108,2014-10-02T10:15:00,0,28238493,195896
OK,108,40,1033,108,2014-10-02T10:20:00,0,28238934,195896
OK,108,40,1033,108,2014-10-02T10:25:00,0,28239383,195896
OK,108,40,1033,108,2014-10-02T10:30:00,0,28239813,195896
OK,97,44,1033,97,2014-10-02T10:35:00,1,28240262,195896
OK,97,44,1033,97,2014-10-02T10:40:00,0,28240706,195896
OK,97,44,1033,97,2014-10-02T10:45:00,0,28241155,195896
OK,97,44,1033,97,2014-10-02T10:50:00,0,28241587,195896
OK,97,44,1033,97,2014-10-02T10:55:00,0,28242035,195896
OK,97,44,1033,97,2014-10-02T11:00:00,0,28242431,195896
OK,97,44,1033,97,2014-10-02T11:05:00,0,28242880,195896
OK,71,61,1033,71,2014-10-02T11:10:00,1,28243329,195896
OK,71,61,1033,71,2014-10-02T11:15:00,1,28243654,195896
OK,71,61,1033,71,2014-10-02T11:20:00,0,28244092,195896
OK,71,61,1033,71,2014-10-02T11:25:00,0,28244521,195896
OK,71,61,1033,71,2014-10-02T11:30:00,0,28244970,195896
OK,71,61,1033,71,2014-10-02T11:35:00,0,28245419,195896
OK,71,61,1033,71,2014-10-02T11:40:00,0,28245825,195896
OK,71,61,1033,71,2014-10-02T11:45:00,0,28246274,195896
OK,117,37,1033,117,2014-10-02T11:50:00,2,28246711,195896
OK,139,31,1033,139,2014-10-02T11:55:00,1,28247160,195896
OK,139,31,1033,139,2014-10-02T12:00:00,0,28247606,195896
OK,139,31,1033,139,2014-10-02T12:05:00,0,28248036,195896
OK,139,31,1033,139,2014-10-02T12:10:00,0,28248485,195896
OK,52,83,1033,52,2014-10-02T12:15:00,1,28248932,195896
OK,52,83,1033,52,2014-10-02T12:20:00,1,28249360,195896
OK,52,83,1033,52,2014-10-02T12:25:00,0,28249804,195896
OK,52,83,1033,52,2014-10-02T12:30:00,0,28250223,195896
OK,52,83,1033,52,2014-10-02T12:35:00,0,28250621,195896
OK,138,31,1033,138,2014-10-02T13:20:00,1,28251946,195896
OK,125,34,1033,125,2014-10-02T13:30:00,3,28252530,195896
OK,115,37,1033,115,2014-10-02T13:35:00,0,28252972,195896
OK,115,37,1033,115,2014-10-02T13:40:00,0,28253389,195896
OK,137,31,1033,137,2014-10-02T13:50:00,1,28254243,195896
OK,137,31,1033,137,2014-10-02T13:55:00,0,28254564,195896
OK,137,31,1033,137,2014-10-02T14:10:00,0,28255141,195896
OK,106,40,1033,106,2014-10-02T14:15:00,1,28255590,195896
OK,163,26,1033,163,2014-10-02T14:20:00,1,28256018,195896
OK,163,26,1033,163,2014-10-02T14:25:00,1,28256467,195896
OK,163,26,1033,163,2014-10-02T14:30:00,0,28256895,195896
OK,163,26,1033,163,2014-10-02T14:35:00,0,28257344,195896
OK,163,26,1033,163,2014-10-02T14:40:00,0,28257785,195896
OK,110,39,1033,110,2014-10-02T14:45:00,2,28258233,195896
OK,110,39,1033,110,2014-10-02T14:50:00,0,28258666,195896
OK,110,39,1033,110,2014-10-02T14:55:00,0,28259112,195896
OK,110,39,1033,110,2014-10-02T15:00:00,0,28259561,195896
OK,110,39,1033,110,2014-10-02T15:05:00,0,28260008,195896
OK,110,39,1033,110,2014-10-02T15:10:00,0,28260441,195896
OK,110,39,1033,110,2014-10-02T15:15:00,0,28260890,195896
OK,110,39,1033,110,2014-10-02T15:20:00,0,28261330,195896
OK,84,51,1033,84,2014-10-02T15:25:00,1,28261712,195896
OK,84,51,1033,84,2014-10-02T15:30:00,0,28262142,195896
OK,84,51,1033,84,2014-10-02T15:40:00,0,28263035,195896
OK,84,51,1033,84,2014-10-02T15:45:00,0,28263473,195896
OK,84,51,1033,84,2014-10-02T15:50:00,0,28263914,195896
OK,84,51,1033,84,2014-10-02T15:55:00,0,28264316,195896
OK,84,51,1033,84,2014-10-02T16:00:00,0,28264765,195896
OK,84,51,1033,84,2014-10-02T16:05:00,0,28265203,195896
OK,84,51,1033,84,2014-10-02T16:10:00,0,28265643,195896
OK,84,51,1033,84,2014-10-02T16:15:00,0,28266039,195896
OK,84,51,1033,84,2014-10-02T16:20:00,0,28266488,195896
OK,84,51,1033,84,2014-10-02T16:25:00,0,28266937,195896
OK,84,51,1033,84,2014-10-02T16:30:00,0,28267260,195896
OK,84,51,1033,84,2014-10-02T16:40:00,0,28268158,195896